Radiation Dose at Monitoring Post of Fukushima Daini Nuclear Power Station
Date,Time,MP-1(microSv/h),MP-2(microSv/h),MP-3(microSv/h),MP-4(microSv/h),MP-5(microSv/h),MP-6(microSv/h),MP-7(microSv/h),Wind Direction,Wind Velocity(m/s),Rain
2024/07/06,00:00,0.148,0.131,0.215,0.201,0.205,0.119,0.076,south,5.0,No
2024/07/06,00:10,0.148,0.131,0.213,0.199,0.208,0.118,0.076,south,5.8,No
2024/07/06,00:20,0.149,0.132,0.216,0.199,0.208,0.117,0.075,south-southeast,5.5,No
2024/07/06,00:30,0.148,0.132,0.215,0.201,0.206,0.117,0.076,south,5.3,No
2024/07/06,00:40,0.147,0.131,0.213,0.201,0.208,0.118,0.076,south,4.8,No
2024/07/06,00:50,0.149,0.132,0.215,0.199,0.208,0.118,0.076,south,4.3,No
2024/07/06,01:00,0.148,0.131,0.215,0.200,0.207,0.117,0.076,south,4.5,No
2024/07/06,01:10,0.147,0.131,0.213,0.201,0.206,0.118,0.076,south,4.5,No
2024/07/06,01:20,0.148,0.132,0.215,0.200,0.210,0.119,0.076,south,3.5,No
2024/07/06,01:30,0.148,0.132,0.217,0.199,0.208,0.118,0.075,south,4.3,No
2024/07/06,01:40,0.149,0.131,0.214,0.202,0.206,0.118,0.076,south,4.3,No
2024/07/06,01:50,0.147,0.133,0.214,0.202,0.207,0.118,0.076,south,3.8,No
2024/07/06,02:00,0.148,0.132,0.217,0.200,0.209,0.119,0.075,south-southeast,2.6,No
2024/07/06,02:10,0.150,0.130,0.215,0.199,0.207,0.117,0.076,south,1.3,No
2024/07/06,02:20,0.147,0.132,0.213,0.201,0.205,0.119,0.076,south,2.1,No
2024/07/06,02:30,0.148,0.133,0.215,0.200,0.207,0.118,0.075,south,2.3,No
2024/07/06,02:40,0.150,0.131,0.216,0.199,0.209,0.118,0.076,south,1.5,No
2024/07/06,02:50,0.149,0.132,0.214,0.201,0.206,0.117,0.076,south,2.1,No
2024/07/06,03:00,0.148,0.133,0.216,0.201,0.207,0.119,0.076,west-southwest,1.1,No
2024/07/06,03:10,0.149,0.131,0.216,0.201,0.210,0.118,0.077,west-northwest,0.6,No
2024/07/06,03:20,0.149,0.132,0.215,0.201,0.209,0.117,0.076,-,CALM,No
2024/07/06,03:30,0.148,0.133,0.215,0.203,0.206,0.119,0.076,-,CALM,No
2024/07/06,03:40,0.150,0.131,0.217,0.201,0.209,0.119,0.076,-,CALM,No
2024/07/06,03:50,0.149,0.132,0.215,0.200,0.209,0.118,0.077,-,CALM,No
2024/07/06,04:00,0.148,0.133,0.216,0.202,0.208,0.119,0.076,east-northeast,0.6,No
2024/07/06,04:10,0.149,0.132,0.217,0.202,0.208,0.119,0.077,-,CALM,No
2024/07/06,04:20,0.150,0.132,0.215,0.200,0.210,0.119,0.077,-,CALM,No
2024/07/06,04:30,0.149,0.133,0.215,0.205,0.209,0.119,0.077,north,1.0,No
2024/07/06,04:40,0.149,0.133,0.218,0.202,0.208,0.119,0.077,north,1.1,No
2024/07/06,04:50,0.149,0.133,0.216,0.200,0.211,0.118,0.077,north,1.0,No
2024/07/06,05:00,0.149,0.134,0.215,0.202,0.210,0.120,0.077,east-southeast,0.8,No
2024/07/06,05:10,0.148,0.132,0.216,0.202,0.208,0.119,0.077,east,0.9,No
2024/07/06,05:20,0.150,0.132,0.217,0.201,0.209,0.119,0.077,-,CALM,No
2024/07/06,05:30,0.148,0.134,0.215,0.201,0.211,0.119,0.077,north,0.8,No
2024/07/06,05:40,0.147,0.132,0.216,0.204,0.208,0.119,0.077,-,CALM,No
2024/07/06,05:50,0.150,0.132,0.217,0.202,0.207,0.118,0.077,north-northwest,1.5,No
2024/07/06,06:00,0.149,0.134,0.214,0.199,0.210,0.118,0.077,north,2.1,No
2024/07/06,06:10,0.148,0.132,0.218,0.202,0.210,0.119,0.077,north-northwest,2.5,No
2024/07/06,06:20,0.149,0.133,0.217,0.204,0.208,0.119,0.078,north-northwest,3.0,No
2024/07/06,06:30,0.150,0.132,0.216,0.201,0.207,0.120,0.077,north,3.2,No
2024/07/06,06:40,0.150,0.131,0.215,0.200,0.207,0.119,0.076,north,2.7,No
2024/07/06,06:50,0.149,0.133,0.215,0.200,0.208,0.119,0.076,north,2.5,No
2024/07/06,07:00,0.147,0.133,0.218,0.202,0.211,0.119,0.076,north,2.6,No
2024/07/06,07:10,0.149,0.134,0.217,0.203,0.211,0.119,0.078,north,1.9,Yes
2024/07/06,07:20,0.151,0.132,0.215,0.202,0.208,0.119,0.076,north-northeast,1.8,No
2024/07/06,07:30,0.149,0.134,0.214,0.201,0.207,0.119,0.077,north-northeast,1.4,No
2024/07/06,07:40,0.148,0.133,0.217,0.200,0.208,0.119,0.078,north,2.0,No
2024/07/06,07:50,0.148,0.133,0.217,0.199,0.207,0.120,0.078,north,1.8,No
2024/07/06,08:00,0.149,0.132,0.216,0.199,0.206,0.119,0.077,north-northwest,1.5,No
2024/07/06,08:10,0.150,0.131,0.215,0.200,0.207,0.120,0.076,north-northeast,2.0,No
2024/07/06,08:20,0.150,0.132,0.214,0.202,0.210,0.118,0.076,north-northeast,1.8,No
2024/07/06,08:30,0.148,0.132,0.215,0.202,0.211,0.118,0.077,north,1.0,No
2024/07/06,08:40,0.149,0.132,0.214,0.202,0.209,0.119,0.077,north,1.0,No
2024/07/06,08:50,0.147,0.133,0.215,0.200,0.208,0.119,0.076,north,1.5,No
2024/07/06,09:00,0.148,0.133,0.214,0.199,0.207,0.120,0.076,north,1.7,No
2024/07/06,09:10,0.148,0.133,0.214,0.201,0.207,0.118,0.077,northeast,1.0,No
2024/07/06,09:20,0.148,0.132,0.216,0.201,0.208,0.119,0.076,north-northeast,0.9,No
2024/07/06,09:30,0.148,0.132,0.215,0.201,0.208,0.119,0.076,east,1.1,No
2024/07/06,09:40,0.148,0.132,0.216,0.202,0.207,0.119,0.077,east,2.3,No
2024/07/06,09:50,0.149,0.133,0.217,0.201,0.207,0.119,0.077,east-southeast,2.7,No
2024/07/06,10:00,0.148,0.133,0.216,0.201,0.209,0.119,0.076,east-southeast,4.1,No
2024/07/06,10:10,0.148,0.133,0.216,0.201,0.208,0.118,0.076,east-southeast,3.8,No
2024/07/06,10:20,0.148,0.132,0.216,0.202,0.208,0.118,0.076,southeast,3.9,No
2024/07/06,10:30,0.149,0.133,0.216,0.201,0.207,0.118,0.075,southeast,2.3,No
2024/07/06,10:40,0.149,0.132,0.215,0.201,0.208,0.118,0.076,southeast,2.3,No
2024/07/06,10:50,0.148,0.131,0.216,0.201,0.207,0.118,0.075,southeast,2.8,Yes
2024/07/06,11:00,0.148,0.131,0.214,0.200,0.208,0.119,0.076,southeast,3.0,No
2024/07/06,11:10,0.147,0.131,0.214,0.200,0.207,0.118,0.075,southeast,3.1,No
2024/07/06,11:20,0.148,0.132,0.215,0.198,0.206,0.118,0.075,southeast,1.3,No
2024/07/06,11:30,0.148,0.132,0.213,0.199,0.207,0.118,0.076,-,CALM,No
2024/07/06,11:40,0.148,0.132,0.215,0.200,0.206,0.117,0.076,south-southeast,2.2,No
2024/07/06,11:50,0.148,0.132,0.215,0.201,0.206,0.118,0.076,southeast,3.0,No
2024/07/06,12:00,0.148,0.132,0.214,0.200,0.206,0.118,0.076,east-southeast,2.3,No
2024/07/06,12:10,0.148,0.131,0.215,0.200,0.206,0.118,0.075,southeast,2.7,No
2024/07/06,12:20,0.148,0.131,0.214,0.200,0.206,0.118,0.076,south-southeast,3.2,No
2024/07/06,12:30,0.148,0.131,0.215,0.200,0.206,0.117,0.075,southeast,3.6,No
2024/07/06,12:40,0.147,0.131,0.213,0.199,0.206,0.118,0.074,south-southeast,3.7,No
2024/07/06,12:50,0.147,0.131,0.214,0.200,0.207,0.118,0.076,southeast,3.7,No
2024/07/06,13:00,0.147,0.132,0.215,0.200,0.207,0.118,0.076,south-southeast,3.1,No
2024/07/06,13:10,0.147,0.130,0.215,0.199,0.206,0.118,0.076,south-southeast,2.8,No
2024/07/06,13:20,0.147,0.131,0.214,0.199,0.206,0.118,0.076,south-southeast,1.7,No
2024/07/06,13:30,0.147,0.132,0.214,0.199,0.206,0.117,0.075,southeast,3.2,No
2024/07/06,13:40,0.148,0.131,0.213,0.199,0.207,0.119,0.075,south-southeast,3.8,No
2024/07/06,13:50,0.148,0.132,0.214,0.199,0.205,0.119,0.075,south,3.5,No
2024/07/06,14:00,0.146,0.130,0.214,0.199,0.205,0.118,0.075,south-southeast,3.2,No
2024/07/06,14:10,0.146,0.131,0.214,0.198,0.205,0.118,0.075,south-southeast,2.2,No
2024/07/06,14:20,0.148,0.131,0.213,0.199,0.205,0.118,0.075,south-southeast,4.0,No
2024/07/06,14:30,0.149,0.133,0.213,0.202,0.207,0.117,0.075,south,3.5,Yes
2024/07/06,14:40,0.148,0.132,0.218,0.202,0.209,0.118,0.076,south,3.0,Yes
2024/07/06,14:50,0.148,0.132,0.217,0.201,0.210,0.119,0.076,south,3.3,Yes
2024/07/06,15:00,0.148,0.132,0.217,0.201,0.211,0.120,0.077,south-southeast,2.6,Yes
2024/07/06,15:10,0.148,0.132,0.215,0.201,0.207,0.120,0.076,south,3.8,Yes
2024/07/06,15:20,0.148,0.132,0.216,0.199,0.207,0.119,0.078,south,2.9,Yes
2024/07/06,15:30,0.148,0.132,0.213,0.202,0.207,0.119,0.077,south,3.9,No
2024/07/06,15:40,0.150,0.133,0.216,0.202,0.207,0.120,0.076,south,4.5,Yes
2024/07/06,15:50,0.149,0.132,0.217,0.201,0.211,0.120,0.076,south,4.2,Yes
2024/07/06,16:00,0.149,0.133,0.216,0.201,0.209,0.118,0.077,south,4.1,Yes
2024/07/06,16:10,0.148,0.131,0.216,0.200,0.208,0.120,0.078,south,4.8,Yes
2024/07/06,16:20,0.149,0.132,0.215,0.201,0.207,0.120,0.078,south,3.9,Yes
2024/07/06,16:30,0.151,0.134,0.218,0.204,0.208,0.121,0.078,south-southwest,3.8,Yes
2024/07/06,16:40,0.149,0.134,0.219,0.202,0.210,0.120,0.077,south,2.5,Yes
2024/07/06,16:50,0.149,0.133,0.216,0.202,0.209,0.119,0.078,south-southwest,2.7,Yes
2024/07/06,17:00,0.149,0.133,0.215,0.201,0.208,0.120,0.078,southwest,2.5,No
2024/07/06,17:10,0.149,0.134,0.217,0.203,0.206,0.119,0.077,west,2.3,No
2024/07/06,17:20,0.151,0.132,0.218,0.203,0.207,0.119,0.077,west,2.9,No
2024/07/06,17:30,0.149,0.131,0.217,0.200,0.210,0.119,0.077,west,1.0,No
2024/07/06,17:40,0.147,0.132,0.215,0.199,0.209,0.118,0.077,-,CALM,No
2024/07/06,17:50,0.149,0.133,0.214,0.201,0.206,0.120,0.076,south-southwest,1.8,Yes
2024/07/06,18:00,0.150,0.133,0.217,0.202,0.205,0.119,0.076,south-southwest,1.9,Yes
2024/07/06,18:10,0.149,0.132,0.217,0.200,0.210,0.118,0.076,south-southwest,1.7,No
2024/07/06,18:20,0.148,0.131,0.215,0.201,0.209,0.118,0.076,south-southwest,2.2,No
2024/07/06,18:30,0.148,0.133,0.216,0.201,0.207,0.119,0.076,southwest,1.5,No
2024/07/06,18:40,0.149,0.134,0.217,0.202,0.206,0.118,0.076,west-southwest,2.4,No
2024/07/06,18:50,0.150,0.132,0.216,0.201,0.209,0.118,0.076,west,2.7,No
2024/07/06,19:00,0.148,0.132,0.213,0.200,0.209,0.118,0.077,southwest,1.8,No
2024/07/06,19:10,0.147,0.133,0.217,0.199,0.207,0.119,0.077,south-southwest,2.4,No
2024/07/06,19:20,0.150,0.133,0.216,0.203,0.207,0.118,0.076,southwest,2.1,No
2024/07/06,19:30,0.150,0.131,0.216,0.201,0.207,0.117,0.077,west-southwest,3.1,No
2024/07/06,19:40,0.150,0.131,0.215,0.199,0.209,0.118,0.076,west-southwest,4.4,No
2024/07/06,19:50,0.147,0.134,0.216,0.201,0.207,0.120,0.076,west-southwest,4.2,No
2024/07/06,20:00,0.149,0.132,0.217,0.201,0.207,0.118,0.075,west,4.7,No
2024/07/06,20:10,0.149,0.132,0.216,0.201,0.207,0.118,0.076,west,5.7,No
2024/07/06,20:20,0.148,0.133,0.215,0.199,0.210,0.119,0.076,west-northwest,4.8,No
2024/07/06,20:30,0.148,0.133,0.217,0.201,0.208,0.119,0.076,west-northwest,0.8,No
2024/07/06,20:40,0.149,0.133,0.217,0.203,0.206,0.118,0.077,south,2.1,No
2024/07/06,20:50,0.149,0.132,0.214,0.201,0.206,0.119,0.076,south-southwest,2.8,No
2024/07/06,21:00,0.149,0.132,0.215,0.199,0.210,0.119,0.076,south-southwest,4.6,No
2024/07/06,21:10,0.148,0.133,0.217,0.202,0.209,0.118,0.075,south,4.6,No
2024/07/06,21:20,0.149,0.132,0.216,0.203,0.207,0.118,0.077,south,4.6,No
2024/07/06,21:30,0.151,0.132,0.215,0.201,0.206,0.118,0.077,south,4.1,No
2024/07/06,21:40,0.149,0.134,0.215,0.199,0.207,0.119,0.076,south-southwest,3.8,No
2024/07/06,21:50,0.148,0.133,0.219,0.200,0.210,0.118,0.076,south-southwest,2.7,No
2024/07/06,22:00,0.150,0.133,0.216,0.203,0.208,0.118,0.076,west-southwest,3.2,No
2024/07/06,22:10,0.150,0.133,0.214,0.202,0.206,0.119,0.077,west-southwest,4.1,No
2024/07/06,22:20,0.148,0.134,0.216,0.200,0.206,0.120,0.077,west-southwest,4.4,No
2024/07/06,22:30,0.148,0.132,0.217,0.200,0.210,0.119,0.076,southwest,3.8,Yes
2024/07/06,22:40,0.150,0.131,0.215,0.201,0.209,0.118,0.077,southwest,3.9,No
2024/07/06,22:50,0.151,0.132,0.214,0.202,0.206,0.118,0.077,west-southwest,5.6,No
2024/07/06,23:00,0.148,0.133,0.217,0.201,0.207,0.120,0.076,west-southwest,5.3,No
2024/07/06,23:10,0.148,0.132,0.217,0.200,0.209,0.119,0.076,west-southwest,4.8,Yes
2024/07/06,23:20,0.150,0.131,0.215,0.202,0.209,0.118,0.077,west-southwest,4.0,Yes
2024/07/06,23:30,0.149,0.132,0.215,0.202,0.208,0.118,0.077,west-southwest,4.2,No
2024/07/06,23:40,0.149,0.134,0.217,0.201,0.205,0.120,0.077,southwest,2.5,No
2024/07/06,23:50,0.148,0.132,0.218,0.200,0.206,0.119,0.075,southwest,3.0,No
